Precipitable_Water
0.69 0.67 0.65 0.63 0.61 0.60 0.60 0.61 0.60 0.58 0.55 0.55 0.53 0.48 0.46 0.43 0.41 0.41 0.31 0.37 0.45 0.57 0.65 0.77 0.83 0.86 1.12 1.14 1.29 1.41 0.96 0.96 1.05 1.07 1.11 1.29 1.09 1.03 1.10 0.90 0.94 1.06 1.08 1.26 1.37
0.71 0.68 0.66 0.64 0.61 0.59 0.56 0.54 0.55 0.56 0.57 0.57 0.52 0.52 0.51 0.47 0.32 0.22 0.26 0.31 0.48 0.58 0.56 0.67 0.65 0.78 0.92 1.06 1.28 1.21 0.91 0.89 1.11 1.18 1.22 1.30 1.12 1.05 1.00 0.87 0.95 1.01 1.13 1.29 1.37
0.72 0.72 0.71 0.70 0.68 0.65 0.60 0.55 0.53 0.52 0.53 0.54 0.53 0.53 0.53 0.49 0.28 0.29 0.30 0.28 0.47 0.56 0.50 0.65 0.70 0.78 0.84 1.00 1.08 1.16 0.95 0.96 1.02 1.25 1.35 1.28 1.15 1.21 1.09 0.90 1.00 0.98 1.02 1.21 1.30
0.69 0.68 0.69 0.69 0.69 0.68 0.64 0.58 0.55 0.52 0.52 0.52 0.53 0.55 0.50 0.44 0.26 0.51 0.46 0.29 0.42 0.48 0.42 0.55 0.67 0.68 0.73 0.74 1.05 1.05 1.08 1.06 1.18 1.31 1.30 1.26 1.27 1.14 1.16 1.12 1.14 1.11 1.08 1.19 1.27
0.69 0.67 0.66 0.66 0.66 0.67 0.66 0.59 0.55 0.52 0.51 0.52 0.53 0.54 0.44 0.30 0.37 0.70 0.38 0.32 0.35 0.35 0.36 0.46 0.59 0.69 0.58 0.78 1.01 1.00 1.09 1.11 1.24 1.31 1.32 1.40 1.29 1.26 1.16 1.33 1.25 1.11 1.08 1.15 1.25
0.70 0.68 0.67 0.64 0.62 0.62 0.63 0.59 0.53 0.51 0.52 0.52 0.52 0.50 0.34 0.27 0.65 0.75 0.48 0.32 0.28 0.30 0.33 0.44 0.61 0.69 0.56 0.58 0.84 1.08 1.13 1.15 1.21 1.23 1.29 1.19 1.27 1.33 1.34 1.38 1.21 1.04 1.03 1.12 1.21
0.70 0.70 0.68 0.65 0.61 0.60 0.59 0.55 0.52 0.53 0.53 0.52 0.50 0.42 0.27 0.37 0.71 0.69 0.54 0.34 0.30 0.28 0.28 0.53 0.59 0.60 0.55 0.57 0.96 1.06 1.00 1.09 1.11 1.12 1.12 1.23 1.07 1.15 1.40 1.36 1.16 1.02 1.03 1.12 1.25
0.72 0.70 0.67 0.64 0.60 0.57 0.53 0.51 0.55 0.60 0.54 0.50 0.50 0.40 0.21 0.49 0.70 0.56 0.45 0.39 0.33 0.32 0.29 0.46 0.51 0.55 0.54 0.97 0.96 0.90 0.98 0.83 1.04 1.08 1.06 1.04 0.90 1.22 1.41 1.31 1.11 1.02 1.06 1.09 1.20
0.77 0.74 0.70 0.65 0.61 0.58 0.49 0.54 0.61 0.65 0.63 0.54 0.48 0.38 0.29 0.53 0.48 0.54 0.38 0.29 0.34 0.29 0.28 0.42 0.41 0.40 0.47 0.68 0.72 0.79 0.73 0.76 0.88 1.02 1.03 0.95 0.88 1.13 1.32 1.31 1.19 1.09 1.05 1.10 1.15
0.87 0.81 0.75 0.70 0.64 0.59 0.51 0.57 0.66 0.69 0.66 0.66 0.53 0.30 0.34 0.35 0.49 0.53 0.42 0.28 0.20 0.18 0.26 0.32 0.32 0.32 0.37 0.52 0.50 0.59 0.62 0.70 0.75 0.91 0.91 0.88 0.88 0.94 1.21 1.31 1.32 1.25 1.18 1.09 1.10
0.93 0.88 0.83 0.77 0.72 0.68 0.52 0.47 0.41 0.43 0.48 0.38 0.37 0.35 0.45 0.49 0.52 0.51 0.43 0.34 0.31 0.23 0.20 0.28 0.25 0.24 0.32 0.43 0.59 0.65 0.71 0.71 0.75 0.75 0.74 0.79 0.83 0.89 0.95 1.16 1.23 1.26 1.15 1.11 1.10
0.90 0.87 0.84 0.79 0.74 0.73 0.68 0.44 0.41 0.44 0.26 0.35 0.34 0.39 0.47 0.50 0.39 0.44 0.49 0.33 0.29 0.21 0.24 0.22 0.18 0.27 0.35 0.39 0.46 0.57 0.59 0.63 0.58 0.72 0.63 0.75 0.77 0.80 0.85 0.97 1.08 1.19 1.24 1.14 1.12
0.86 0.86 0.83 0.79 0.75 0.73 0.63 0.61 0.66 0.59 0.33 0.30 0.33 0.32 0.40 0.47 0.38 0.37 0.42 0.38 0.31 0.24 0.25 0.17 0.20 0.25 0.25 0.32 0.40 0.48 0.53 0.58 0.55 0.63 0.66 0.66 0.68 0.67 0.80 0.89 1.02 1.10 1.25 1.30 1.23
0.81 0.81 0.79 0.75 0.64 0.63 0.59 0.67 0.68 0.64 0.28 0.29 0.29 0.33 0.41 0.47 0.38 0.46 0.42 0.40 0.33 0.28 0.24 0.21 0.24 0.20 0.19 0.25 0.36 0.38 0.53 0.52 0.51 0.50 0.40 0.75 0.54 0.60 0.64 0.77 0.87 0.98 1.09 1.17 1.26
0.82 0.80 0.79 0.76 0.62 0.55 0.62 0.70 0.67 0.54 0.17 0.31 0.38 0.50 0.44 0.39 0.44 0.43 0.45 0.42 0.33 0.29 0.31 0.25 0.25 0.22 0.17 0.19 0.31 0.35 0.52 0.46 0.49 0.44 0.48 0.62 0.48 0.63 0.59 0.65 0.77 0.92 1.00 1.12 1.24
0.84 0.83 0.79 0.72 0.68 0.67 0.72 0.70 0.60 0.31 0.19 0.33 0.44 0.39 0.36 0.39 0.40 0.46 0.39 0.44 0.42 0.33 0.31 0.29 0.33 0.26 0.20 0.25 0.24 0.36 0.47 0.57 0.55 0.49 0.39 0.53 0.52 0.48 0.56 0.70 0.76 0.85 0.95 1.06 1.18
0.85 0.83 0.77 0.74 0.58 0.73 0.72 0.57 0.32 0.24 0.29 0.35 0.38 0.40 0.37 0.38 0.37 0.38 0.36 0.34 0.30 0.25 0.23 0.25 0.29 0.29 0.30 0.27 0.25 0.22 0.35 0.40 0.35 0.39 0.36 0.61 0.48 0.57 0.54 0.70 0.75 0.85 1.00 1.06 1.10
0.84 0.79 0.78 0.78 0.82 0.81 0.64 0.42 0.27 0.31 0.29 0.36 0.35 0.36 0.35 0.41 0.38 0.35 0.35 0.32 0.35 0.31 0.26 0.23 0.20 0.25 0.31 0.29 0.27 0.19 0.34 0.38 0.34 0.34 0.38 0.51 0.33 0.43 0.60 0.76 0.90 1.05 1.08 1.13 1.11
0.81 0.76 0.77 0.81 0.87 0.85 0.51 0.33 0.32 0.35 0.37 0.32 0.35 0.34 0.36 0.39 0.37 0.37 0.34 0.33 0.36 0.34 0.26 0.24 0.22 0.30 0.33 0.34 0.33 0.28 0.32 0.50 0.39 0.41 0.37 0.41 0.44 0.46 0.56 0.70 0.85 1.01 1.04 1.07 1.11
0.69 0.70 0.73 0.86 0.92 0.76 0.45 0.35 0.40 0.42 0.42 0.36 0.27 0.35 0.35 0.39 0.36 0.35 0.34 0.37 0.36 0.38 0.37 0.32 0.25 0.29 0.32 0.35 0.35 0.34 0.36 0.35 0.32 0.25 0.25 0.30 0.33 0.41 0.60 0.69 0.82 0.91 1.00 1.02 1.07
0.69 0.62 0.77 0.87 0.81 0.60 0.40 0.38 0.42 0.47 0.44 0.37 0.34 0.31 0.33 0.35 0.37 0.38 0.37 0.40 0.41 0.40 0.39 0.35 0.28 0.30 0.33 0.30 0.31 0.31 0.32 0.33 0.34 0.33 0.25 0.24 0.30 0.43 0.57 0.71 0.78 0.87 0.93 1.00 1.05
0.63 0.51 0.81 0.83 0.50 0.49 0.42 0.45 0.47 0.43 0.45 0.40 0.37 0.36 0.32 0.33 0.34 0.38 0.37 0.41 0.44 0.43 0.35 0.35 0.32 0.34 0.28 0.35 0.37 0.38 0.32 0.34 0.29 0.29 0.31 0.28 0.33 0.48 0.49 0.75 0.79 0.86 0.89 0.95 0.99
0.52 0.53 0.77 0.72 0.44 0.42 0.47 0.46 0.49 0.47 0.45 0.42 0.37 0.37 0.37 0.33 0.31 0.38 0.39 0.44 0.45 0.43 0.41 0.42 0.32 0.31 0.35 0.33 0.35 0.32 0.36 0.39 0.38 0.35 0.33 0.28 0.31 0.55 0.63 0.72 0.83 0.83 0.86 0.90 0.91
0.57 0.48 0.64 0.64 0.59 0.49 0.49 0.49 0.47 0.56 0.52 0.53 0.49 0.51 0.41 0.36 0.37 0.37 0.42 0.47 0.49 0.48 0.50 0.48 0.38 0.35 0.34 0.35 0.35 0.32 0.36 0.39 0.37 0.32 0.30 0.30 0.32 0.45 0.52 0.66 0.77 0.83 0.86 0.90 0.92
0.61 0.54 0.59 0.51 0.55 0.53 0.53 0.52 0.49 0.49 0.58 0.60 0.54 0.52 0.50 0.41 0.39 0.36 0.42 0.45 0.53 0.55 0.50 0.45 0.37 0.41 0.42 0.48 0.43 0.39 0.39 0.40 0.38 0.39 0.37 0.42 0.40 0.43 0.47 0.55 0.74 0.86 0.92 0.87 0.85
0.58 0.56 0.60 0.48 0.49 0.48 0.52 0.47 0.47 0.52 0.54 0.52 0.53 0.57 0.58 0.49 0.48 0.48 0.51 0.53 0.53 0.56 0.50 0.49 0.40 0.45 0.43 0.44 0.42 0.39 0.41 0.41 0.40 0.40 0.40 0.39 0.39 0.48 0.62 0.67 0.78 0.87 0.92 0.91 0.88
0.72 0.73 0.61 0.52 0.46 0.42 0.39 0.42 0.43 0.49 0.44 0.48 0.50 0.53 0.54 0.60 0.66 0.65 0.63 0.63 0.61 0.56 0.59 0.51 0.43 0.46 0.40 0.44 0.42 0.38 0.42 0.41 0.39 0.40 0.38 0.33 0.40 0.54 0.55 0.66 0.77 0.87 0.94 0.96 0.98
Wind_Speed
7 7 6 6 5 5 4 4 4 4 3 4 4 5 5 6 6 6 7 5 5 7 5 4 4 3 2 1 2 2 3 4 5 4 5 6 4 4 5 8 6 5 6 11 12
7 7 7 6 6 6 5 5 5 4 4 5 5 5 5 5 6 7 6 7 7 7 6 6 5 4 1 1 1 2 3 3 3 2 5 5 5 6 4 7 5 6 8 12 12
8 8 7 7 7 6 6 6 5 5 5 5 5 5 5 5 5 4 6 8 9 8 6 6 5 4 2 1 1 2 3 3 3 1 4 5 6 5 3 4 4 4 9 11 11
8 8 8 7 7 7 7 7 6 6 6 5 5 5 4 3 2 3 6 9 9 8 8 7 7 5 2 0 1 0 2 1 3 4 4 6 6 4 4 3 1 5 10 12 10
9 8 8 8 8 8 8 8 7 7 6 6 5 4 2 2 2 2 5 9 10 10 9 9 8 6 3 1 1 1 2 1 2 4 3 5 5 5 5 2 3 6 10 11 10
9 9 9 9 9 10 10 10 9 8 7 6 5 4 3 3 2 1 4 7 9 11 10 10 8 7 4 3 1 1 3 3 2 3 2 4 2 5 7 5 6 7 10 10 10
10 10 11 11 12 12 12 11 9 8 7 6 5 4 5 3 2 2 3 6 8 10 11 11 8 8 5 4 3 4 3 2 2 3 2 2 3 4 5 7 8 8 10 10 10
12 12 13 13 14 14 13 11 9 8 7 5 5 5 5 5 4 4 4 5 8 8 9 11 10 9 8 6 5 6 5 3 2 3 2 3 3 3 6 7 9 9 9 10 11
15 15 16 16 16 15 13 11 9 7 7 6 6 7 6 6 7 6 6 6 8 8 9 10 11 10 10 11 8 8 6 4 3 4 1 4 1 3 6 8 9 10 11 10 11
18 18 18 18 18 16 14 12 10 10 9 10 10 9 9 9 7 7 7 6 7 8 8 10 11 13 13 13 10 8 9 7 4 6 6 5 6 2 6 8 11 10 11 12 12
20 20 20 20 20 17 15 13 13 12 13 13 9 10 7 7 8 9 9 8 8 10 11 12 12 16 15 16 12 8 9 8 4 5 7 9 8 6 7 9 11 12 13 13 13
21 21 21 21 20 16 16 15 13 14 16 17 18 18 14 11 11 11 12 11 12 12 13 10 16 15 12 12 14 13 11 9 6 5 8 7 9 8 9 11 12 13 14 15 14
19 19 19 19 17 14 14 12 13 15 16 15 16 18 16 16 14 13 16 14 14 15 15 16 9 15 14 16 16 15 14 10 9 6 10 9 11 9 9 11 12 13 14 15 15
18 18 17 17 11 13 10 10 13 13 13 10 12 14 15 15 16 14 17 15 12 15 14 16 16 12 17 19 17 17 16 14 11 10 8 8 5 7 8 11 12 14 15 16 18
18 18 17 15 14 12 10 11 11 9 11 7 8 9 12 16 8 14 16 15 15 14 13 13 14 17 17 17 19 18 16 14 13 13 10 11 9 6 7 9 11 13 14 15 17
19 19 18 14 13 13 11 10 9 10 11 8 8 11 13 18 11 11 15 16 13 14 15 18 11 13 17 14 18 19 15 14 12 11 12 12 9 6 7 7 7 8 11 14 15
21 19 17 15 13 12 12 10 10 12 8 8 9 11 15 14 12 14 17 18 14 14 15 17 18 15 14 14 13 17 19 14 14 13 12 7 10 11 7 7 8 8 9 11 14
22 19 15 14 14 13 12 12 14 10 12 9 10 12 17 15 17 15 17 18 19 16 13 14 16 20 15 18 13 20 22 15 13 13 12 10 10 8 9 7 7 6 7 9 11
22 15 14 15 14 13 13 15 12 14 12 13 13 14 16 18 14 18 18 18 18 18 17 13 17 15 14 15 16 17 22 19 16 11 11 10 11 12 11 10 9 7 6 7 9
18 15 13 13 12 13 15 19 14 14 13 13 15 12 15 18 18 17 19 17 19 18 19 13 14 18 16 15 14 14 20 17 16 16 15 13 13 9 12 12 10 9 8 6 7
15 14 12 12 11 12 15 16 15 14 13 13 13 13 13 15 18 19 16 16 14 15 20 19 14 15 16 19 17 15 15 16 14 12 15 17 15 16 13 12 13 10 8 7 7
15 13 13 13 13 13 15 13 14 16 15 15 16 16 17 15 17 18 20 17 13 14 16 20 16 15 20 15 18 17 20 19 16 16 15 15 8 10 14 16 14 12 9 7 7
15 14 14 14 14 14 13 15 15 16 17 16 19 18 16 17 16 18 18 16 15 16 12 18 16 15 15 15 17 21 19 16 17 16 14 13 11 9 13 15 15 14 11 9 8
16 15 14 15 15 16 15 16 16 15 16 16 17 18 22 24 23 19 18 15 16 16 14 15 21 21 15 14 16 21 20 19 16 14 15 17 16 12 14 16 16 14 12 10 9
17 16 16 15 14 16 17 15 16 16 16 16 16 18 18 21 24 26 25 21 21 17 18 22 22 19 21 13 14 18 18 18 20 18 15 11 17 14 15 17 17 15 14 12 11
19 18 18 20 18 19 17 18 19 18 18 19 19 19 19 21 23 20 21 22 20 17 18 20 21 22 20 18 18 17 16 16 17 19 16 17 16 13 12 15 16 16 16 15 14
19 19 19 17 18 18 17 17 17 16 18 20 21 20 22 22 22 24 25 25 24 23 20 19 21 19 20 18 18 19 18 17 17 17 18 18 17 14 15 16 17 17 16 16 16
Wind_Direction
35 33 32 29 23 17 6 356 347 338 327 316 307 297 287 278 269 244 238 230 214 196 194 179 185 183 194 307 334 7 19 127 130 140 141 151 145 118 89 110 95 74 100 136 138
30 26 22 17 12 5 360 349 339 332 324 318 311 302 294 287 266 247 234 218 206 191 193 186 180 175 190 358 45 13 36 120 124 124 145 160 165 138 119 124 102 93 113 134 141
31 27 22 18 14 9 2 355 346 337 328 321 314 307 296 290 263 236 220 207 197 194 200 197 187 190 227 346 57 35 41 114 143 118 155 146 169 161 133 145 98 132 143 146 147
19 14 10 6 1 356 351 344 337 331 326 324 323 318 303 270 281 247 221 204 199 201 198 194 192 199 227 249 69 308 59 115 122 122 137 154 156 174 150 96 117 122 153 153 155
9 6 2 357 352 347 341 335 329 324 319 316 314 314 301 249 287 282 200 201 200 205 206 204 205 212 231 198 148 182 100 121 177 158 143 169 192 204 206 205 132 137 155 161 161
359 355 352 348 342 336 329 323 317 312 310 309 308 298 273 261 287 236 197 198 206 209 210 211 218 215 232 219 242 85 111 109 107 166 171 189 190 203 199 175 152 150 161 164 163
342 341 338 335 331 327 321 315 309 305 299 296 291 279 259 304 264 240 212 208 208 213 213 211 213 217 218 212 204 184 139 123 114 131 151 171 210 211 177 184 175 164 166 166 167
327 326 325 325 324 322 317 310 302 299 294 288 283 272 269 259 251 246 229 224 218 216 215 213 218 225 229 209 207 211 221 202 143 156 123 206 81 152 176 185 182 176 171 172 174
316 315 315 314 315 312 309 301 296 292 282 276 282 272 262 251 252 243 232 229 212 214 216 214 220 226 219 224 220 222 231 214 194 211 195 212 39 159 199 190 191 187 185 181 178
309 309 308 308 308 302 298 287 284 280 276 274 273 268 260 248 243 235 234 216 210 204 212 218 223 224 225 224 228 230 233 217 236 219 235 240 260 241 204 201 207 200 198 196 193
306 306 305 304 305 294 290 280 277 274 267 265 274 268 249 247 244 236 225 222 214 215 217 220 226 224 222 226 251 249 236 238 218 236 248 251 259 253 221 215 206 211 203 205 201
306 304 302 302 301 288 282 276 278 279 279 266 259 254 254 253 243 233 227 226 225 224 223 224 233 231 235 232 233 237 234 228 241 249 251 254 252 249 227 222 217 212 211 207 203
310 309 308 306 300 289 284 270 278 285 274 270 258 251 242 239 243 232 224 227 229 228 228 236 239 235 231 229 232 233 237 227 254 249 253 259 248 234 235 222 218 218 218 215 211
314 312 312 312 296 299 283 274 285 283 277 256 256 248 233 233 242 237 223 223 236 234 234 241 237 235 233 233 229 235 227 243 248 256 273 237 246 226 221 220 221 222 220 223 221
314 312 309 306 297 291 285 283 286 277 278 265 249 245 226 223 225 226 218 227 237 234 233 237 237 234 235 235 229 235 242 239 241 253 262 223 248 205 211 218 219 223 227 224 222
314 311 307 298 292 286 283 282 272 267 263 260 252 235 218 221 235 217 216 230 243 241 238 246 240 238 230 234 230 228 229 229 237 246 240 229 232 210 195 204 209 221 226 225 219
313 308 300 292 292 283 279 266 266 266 274 259 253 232 221 221 224 219 218 220 229 230 236 232 234 233 232 229 226 216 216 221 228 220 235 220 228 242 213 220 231 241 232 221 216
312 306 296 290 285 280 264 257 261 281 263 268 259 246 231 227 229 225 223 227 228 236 256 232 227 226 222 228 218 217 216 221 219 225 223 208 233 235 217 227 228 229 222 216 212
308 299 295 292 280 270 257 253 272 266 272 266 258 248 232 233 242 227 231 231 227 230 239 234 237 212 221 220 226 212 224 232 254 231 245 232 230 238 226 223 216 209 208 203 206
304 294 297 297 276 263 259 258 268 266 270 259 255 254 243 228 228 231 229 237 236 230 233 241 245 221 213 216 220 231 216 217 229 245 236 236 234 241 208 207 205 202 198 191 196
297 290 294 291 278 264 262 261 262 260 266 260 253 254 247 242 243 233 231 234 231 231 229 233 231 209 214 218 213 214 212 224 244 239 246 246 237 226 215 209 202 193 195 203 209
297 287 288 288 275 272 268 267 268 261 259 257 256 254 251 253 246 238 233 230 235 226 220 218 223 226 219 220 229 230 221 220 229 226 242 252 245 215 225 205 205 202 209 209 216
298 291 286 284 279 269 271 267 267 264 260 258 254 249 250 248 245 238 238 235 234 227 228 210 224 223 225 222 223 224 225 227 234 245 233 232 223 209 206 208 209 208 216 224 225
293 289 285 281 278 277 274 266 266 262 264 262 261 254 251 246 243 241 233 232 233 237 232 228 231 223 223 228 210 214 214 222 228 228 229 227 238 205 208 211 209 213 218 219 218
292 289 287 283 275 277 271 271 265 264 260 261 258 257 254 248 243 241 241 244 242 230 229 225 228 223 231 242 212 211 211 221 229 238 242 229 226 230 219 217 215 216 218 222 226
291 288 285 280 278 272 265 266 266 265 265 263 260 263 255 251 247 249 242 240 232 226 230 224 226 230 230 229 225 224 223 226 233 236 236 241 236 237 225 225 218 222 222 228 233
291 285 283 278 274 270 268 267 268 267 267 265 266 264 260 256 254 248 242 238 235 237 232 228 221 219 224 217 218 227 221 229 233 233 239 239 241 223 225 223 223 226 231 235 242